Back to catalog

SCOUT G-1 DEB

AlivePO
NORAD 35528·DEBRIS·🇺🇸 United States

Launched Aug 25, 1988 from Vandenberg Space Force Base

Loading…

Next Passes (next 24 hours)

TLE

AgingSource: Space-Track

Epoch: Sep 9, 2026, 12:09 UTC

1 35528U 88074R   26252.50688867  .00000396  00000-0  52027-3 0  9992
2 35528  89.8614 330.4557 0106595  75.8578 347.3598 13.57284697613342

Track SCOUT G-1 DEB in real time with AllMySat

Download on the App Store